owner,sensor,date,latitude,longitude,vertical_datum,wind_speed,wind_to_direction,wind_speed_of_gust,qcFlag 
WAVCIS,ioos:station:WAVCIS:CSI03:3,2009-06-01T00:00:00Z,29.4412,-92.0613,10.0,0.931,218.0,,'11111222,11111222,99999999' 
WAVCIS,ioos:station:WAVCIS:CSI03:3,2009-06-01T01:00:00Z,29.4412,-92.0613,10.0,1.327,198.0,,'11111222,11111222,99999999' 
WAVCIS,ioos:station:WAVCIS:CSI03:3,2009-06-01T02:00:00Z,29.4412,-92.0613,10.0,1.538,192.0,,'11111222,11111222,99999999' 
WAVCIS,ioos:station:WAVCIS:CSI03:3,2009-06-01T03:00:00Z,29.4412,-92.0613,10.0,3.172,185.0,,'11111222,11111222,99999999' 
WAVCIS,ioos:station:WAVCIS:CSI03:3,2009-06-01T04:00:00Z,29.4412,-92.0613,10.0,2.716,179.0,,'11111222,11111222,99999999' 
WAVCIS,ioos:station:WAVCIS:CSI03:3,2009-06-01T05:00:00Z,29.4412,-92.0613,10.0,1.683,184.0,,'11111222,11111222,99999999' 
WAVCIS,ioos:station:WAVCIS:CSI03:3,2009-06-01T06:00:00Z,29.4412,-92.0613,10.0,2.169,176.0,,'11111222,11111222,99999999' 
WAVCIS,ioos:station:WAVCIS:CSI03:3,2009-06-01T07:00:00Z,29.4412,-92.0613,10.0,2.166,171.0,,'11111222,11111222,99999999' 
WAVCIS,ioos:station:WAVCIS:CSI03:3,2009-06-01T08:00:00Z,29.4412,-92.0613,10.0,2.398,134.0,,'11111222,11111222,99999999' 
WAVCIS,ioos:station:WAVCIS:CSI03:3,2009-06-01T09:00:00Z,29.4412,-92.0613,10.0,2.162,132.0,,'11111222,11111222,99999999' 
WAVCIS,ioos:station:WAVCIS:CSI03:3,2009-06-01T10:00:00Z,29.4412,-92.0613,10.0,1.903,140.0,,'11111222,11111222,99999999' 
WAVCIS,ioos:station:WAVCIS:CSI03:3,2009-06-01T11:00:00Z,29.4412,-92.0613,10.0,3.336,135.0,,'11111222,11111222,99999999' 
WAVCIS,ioos:station:WAVCIS:CSI03:3,2009-06-01T12:00:00Z,29.4412,-92.0613,10.0,4.122,103.0,,'11111222,11111222,99999999' 
WAVCIS,ioos:station:WAVCIS:CSI03:3,2009-06-01T13:00:00Z,29.4412,-92.0613,10.0,4.083,111.0,,'11111222,11111222,99999999' 
WAVCIS,ioos:station:WAVCIS:CSI03:3,2009-06-01T14:00:00Z,29.4412,-92.0613,10.0,4.169,114.0,,'11111222,11111222,99999999' 
WAVCIS,ioos:station:WAVCIS:CSI03:3,2009-06-01T15:00:00Z,29.4412,-92.0613,10.0,4.095,152.0,,'11111222,11111222,99999999' 
WAVCIS,ioos:station:WAVCIS:CSI03:3,2009-06-01T16:00:00Z,29.4412,-92.0613,10.0,4.596,144.0,,'11111222,11111222,99999999' 
WAVCIS,ioos:station:WAVCIS:CSI03:3,2009-06-01T17:00:00Z,29.4412,-92.0613,10.0,4.217,145.0,,'11111222,11111222,99999999' 
WAVCIS,ioos:station:WAVCIS:CSI03:3,2009-06-01T18:00:00Z,29.4412,-92.0613,10.0,4.447,137.0,,'11111222,11111222,99999999' 
WAVCIS,ioos:station:WAVCIS:CSI03:3,2009-06-01T19:00:00Z,29.4412,-92.0613,10.0,4.718,137.0,,'11111222,11111222,99999999' 
WAVCIS,ioos:station:WAVCIS:CSI03:3,2009-06-01T20:00:00Z,29.4412,-92.0613,10.0,5.043,143.0,,'11111222,11111222,99999999' 
WAVCIS,ioos:station:WAVCIS:CSI03:3,2009-06-01T21:00:00Z,29.4412,-92.0613,10.0,3.286,157.0,,'11111222,11111222,99999999' 
WAVCIS,ioos:station:WAVCIS:CSI03:3,2009-06-01T22:00:00Z,29.4412,-92.0613,10.0,4.182,160.0,,'11111222,11111222,99999999' 
WAVCIS,ioos:station:WAVCIS:CSI03:3,2009-06-01T23:00:00Z,29.4412,-92.0613,10.0,5.646,147.0,,'11111222,11111222,99999999' 
WAVCIS,ioos:station:WAVCIS:CSI03:3,2009-06-02T00:00:00Z,29.4412,-92.0613,10.0,6.499,140.0,,'11111222,11111222,99999999' 
WAVCIS,ioos:station:WAVCIS:CSI03:3,2009-06-02T01:00:00Z,29.4412,-92.0613,10.0,6.722,136.0,,'11111222,11111222,99999999' 
WAVCIS,ioos:station:WAVCIS:CSI03:3,2009-06-02T02:00:00Z,29.4412,-92.0613,10.0,6.502,158.0,,'11111222,11111222,99999999' 
WAVCIS,ioos:station:WAVCIS:CSI03:3,2009-06-02T03:00:00Z,29.4412,-92.0613,10.0,5.863,152.0,,'11111222,11111222,99999999' 
WAVCIS,ioos:station:WAVCIS:CSI03:3,2009-06-02T04:00:00Z,29.4412,-92.0613,10.0,6.374,147.0,,'11111222,11111222,99999999' 
WAVCIS,ioos:station:WAVCIS:CSI03:3,2009-06-02T05:00:00Z,29.4412,-92.0613,10.0,5.157,158.0,,'11111222,11111222,99999999' 
WAVCIS,ioos:station:WAVCIS:CSI03:3,2009-06-02T06:00:00Z,29.4412,-92.0613,10.0,5.716,165.0,,'11111222,11111222,99999999' 
WAVCIS,ioos:station:WAVCIS:CSI03:3,2009-06-02T07:00:00Z,29.4412,-92.0613,10.0,6.102,156.0,,'11111222,11111222,99999999' 
WAVCIS,ioos:station:WAVCIS:CSI03:3,2009-06-02T08:00:00Z,29.4412,-92.0613,10.0,4.129,199.0,,'11111222,11111222,99999999' 
WAVCIS,ioos:station:WAVCIS:CSI03:3,2009-06-02T09:00:00Z,29.4412,-92.0613,10.0,2.989,189.0,,'11111222,11111222,99999999' 
WAVCIS,ioos:station:WAVCIS:CSI03:3,2009-06-02T10:00:00Z,29.4412,-92.0613,10.0,5.372,168.0,,'11111222,11111222,99999999' 
WAVCIS,ioos:station:WAVCIS:CSI03:3,2009-06-02T11:00:00Z,29.4412,-92.0613,10.0,4.672,161.0,,'11111222,11111222,99999999' 
WAVCIS,ioos:station:WAVCIS:CSI03:3,2009-06-02T12:00:00Z,29.4412,-92.0613,10.0,4.149,151.0,,'11111222,11111222,99999999' 
WAVCIS,ioos:station:WAVCIS:CSI03:3,2009-06-02T13:00:00Z,29.4412,-92.0613,10.0,4.228,145.0,,'11111222,11111222,99999999' 
WAVCIS,ioos:station:WAVCIS:CSI03:3,2009-06-02T14:00:00Z,29.4412,-92.0613,10.0,4.633,158.0,,'11111222,11111222,99999999' 
WAVCIS,ioos:station:WAVCIS:CSI03:3,2009-06-02T15:00:00Z,29.4412,-92.0613,10.0,3.816,171.0,,'11111222,11111222,99999999' 
WAVCIS,ioos:station:WAVCIS:CSI03:3,2009-06-02T16:00:00Z,29.4412,-92.0613,10.0,5.821,148.0,,'11111222,11111222,99999999' 
WAVCIS,ioos:station:WAVCIS:CSI03:3,2009-06-02T17:00:00Z,29.4412,-92.0613,10.0,7.22,162.0,,'11111222,11111222,99999999' 
WAVCIS,ioos:station:WAVCIS:CSI03:3,2009-06-02T18:00:00Z,29.4412,-92.0613,10.0,3.367,203.0,,'11111222,11111222,99999999' 
WAVCIS,ioos:station:WAVCIS:CSI03:3,2009-06-02T19:00:00Z,29.4412,-92.0613,10.0,1.695,132.0,,'11111222,11111222,99999999' 
WAVCIS,ioos:station:WAVCIS:CSI03:3,2009-06-02T20:00:00Z,29.4412,-92.0613,10.0,4.272,158.0,,'11111222,11111222,99999999' 
WAVCIS,ioos:station:WAVCIS:CSI03:3,2009-06-02T21:00:00Z,29.4412,-92.0613,10.0,3.933,150.0,,'11111222,11111222,99999999' 
WAVCIS,ioos:station:WAVCIS:CSI03:3,2009-06-02T22:00:00Z,29.4412,-92.0613,10.0,5.159,128.0,,'11111222,11111222,99999999' 
WAVCIS,ioos:station:WAVCIS:CSI03:3,2009-06-02T23:00:00Z,29.4412,-92.0613,10.0,6.393,192.0,,'11111222,11111222,99999999' 
WAVCIS,ioos:station:WAVCIS:CSI03:3,2009-06-03T00:00:00Z,29.4412,-92.0613,10.0,5.195,151.0,,'11111222,11111222,99999999' 
WAVCIS,ioos:station:WAVCIS:CSI03:3,2009-06-03T01:00:00Z,29.4412,-92.0613,10.0,7.71,146.0,,'11111222,11111222,99999999' 
WAVCIS,ioos:station:WAVCIS:CSI03:3,2009-06-03T02:00:00Z,29.4412,-92.0613,10.0,1.259,231.0,,'11111222,11111222,99999999' 
WAVCIS,ioos:station:WAVCIS:CSI03:3,2009-06-03T03:00:00Z,29.4412,-92.0613,10.0,3.836,152.0,,'11111222,11111222,99999999' 
WAVCIS,ioos:station:WAVCIS:CSI03:3,2009-06-03T04:00:00Z,29.4412,-92.0613,10.0,2.578,198.0,,'11111222,11111222,99999999' 
WAVCIS,ioos:station:WAVCIS:CSI03:3,2009-06-03T05:00:00Z,29.4412,-92.0613,10.0,4.172,158.0,,'11111222,11111222,99999999' 
WAVCIS,ioos:station:WAVCIS:CSI03:3,2009-06-03T06:00:00Z,29.4412,-92.0613,10.0,4.673,121.0,,'11111222,11111222,99999999' 
WAVCIS,ioos:station:WAVCIS:CSI03:3,2009-06-03T07:00:00Z,29.4412,-92.0613,10.0,3.467,126.0,,'11111222,11111222,99999999' 
WAVCIS,ioos:station:WAVCIS:CSI03:3,2009-06-03T08:00:00Z,29.4412,-92.0613,10.0,3.867,136.0,,'11111222,11111222,99999999' 
WAVCIS,ioos:station:WAVCIS:CSI03:3,2009-06-03T09:00:00Z,29.4412,-92.0613,10.0,3.551,159.0,,'11111222,11111222,99999999' 
WAVCIS,ioos:station:WAVCIS:CSI03:3,2009-06-03T10:00:00Z,29.4412,-92.0613,10.0,1.152,200.0,,'11111222,11111222,99999999' 
WAVCIS,ioos:station:WAVCIS:CSI03:3,2009-06-03T11:00:00Z,29.4412,-92.0613,10.0,1.642,194.0,,'11111222,11111222,99999999' 
WAVCIS,ioos:station:WAVCIS:CSI03:3,2009-06-03T12:00:00Z,29.4412,-92.0613,10.0,1.604,190.0,,'11111222,11111222,99999999' 
WAVCIS,ioos:station:WAVCIS:CSI03:3,2009-06-03T13:00:00Z,29.4412,-92.0613,10.0,0.71,202.0,,'11111222,11111222,99999999' 
WAVCIS,ioos:station:WAVCIS:CSI03:3,2009-06-03T14:00:00Z,29.4412,-92.0613,10.0,1.157,191.0,,'11111222,11111222,99999999' 
WAVCIS,ioos:station:WAVCIS:CSI03:3,2009-06-03T15:00:00Z,29.4412,-92.0613,10.0,1.287,182.0,,'11111222,11111222,99999999' 
WAVCIS,ioos:station:WAVCIS:CSI03:3,2009-06-03T16:00:00Z,29.4412,-92.0613,10.0,2.382,274.0,,'11111222,11111222,99999999' 
WAVCIS,ioos:station:WAVCIS:CSI03:3,2009-06-03T17:00:00Z,29.4412,-92.0613,10.0,1.56,275.0,,'11111222,11111222,99999999' 
WAVCIS,ioos:station:WAVCIS:CSI03:3,2009-06-03T18:00:00Z,29.4412,-92.0613,10.0,0.535,238.0,,'11111222,11111222,99999999' 
WAVCIS,ioos:station:WAVCIS:CSI03:3,2009-06-03T19:00:00Z,29.4412,-92.0613,10.0,1.921,254.0,,'11111222,11111222,99999999' 
WAVCIS,ioos:station:WAVCIS:CSI03:3,2009-06-03T20:00:00Z,29.4412,-92.0613,10.0,1.242,199.0,,'11111222,11111222,99999999' 
WAVCIS,ioos:station:WAVCIS:CSI03:3,2009-06-03T21:00:00Z,29.4412,-92.0613,10.0,1.899,193.0,,'11111222,11111222,99999999' 
WAVCIS,ioos:station:WAVCIS:CSI03:3,2009-06-03T22:00:00Z,29.4412,-92.0613,10.0,1.013,211.0,,'11111222,11111222,99999999' 
WAVCIS,ioos:station:WAVCIS:CSI03:3,2009-06-03T23:00:00Z,29.4412,-92.0613,10.0,4.327,241.0,,'11111222,11111222,99999999' 
WAVCIS,ioos:station:WAVCIS:CSI03:3,2009-06-04T00:00:00Z,29.4412,-92.0613,10.0,4.443,254.0,,'11111222,11111222,99999999' 
WAVCIS,ioos:station:WAVCIS:CSI03:3,2009-06-04T01:00:00Z,29.4412,-92.0613,10.0,3.901,249.0,,'11111222,11111222,99999999' 
WAVCIS,ioos:station:WAVCIS:CSI03:3,2009-06-04T02:00:00Z,29.4412,-92.0613,10.0,2.863,256.0,,'11111222,11111222,99999999' 
WAVCIS,ioos:station:WAVCIS:CSI03:3,2009-06-04T03:00:00Z,29.4412,-92.0613,10.0,5.413,295.0,,'11111222,11111222,99999999' 
WAVCIS,ioos:station:WAVCIS:CSI03:3,2009-06-04T04:00:00Z,29.4412,-92.0613,10.0,3.74,257.0,,'11111222,11111222,99999999' 
WAVCIS,ioos:station:WAVCIS:CSI03:3,2009-06-04T05:00:00Z,29.4412,-92.0613,10.0,3.564,260.0,,'11111222,11111222,99999999' 
WAVCIS,ioos:station:WAVCIS:CSI03:3,2009-06-04T06:00:00Z,29.4412,-92.0613,10.0,2.72,316.0,,'11111222,11111222,99999999' 
WAVCIS,ioos:station:WAVCIS:CSI03:3,2009-06-04T07:00:00Z,29.4412,-92.0613,10.0,1.943,292.0,,'11111222,11111222,99999999' 
WAVCIS,ioos:station:WAVCIS:CSI03:3,2009-06-04T08:00:00Z,29.4412,-92.0613,10.0,5.02,285.0,,'11111222,11111222,99999999' 
WAVCIS,ioos:station:WAVCIS:CSI03:3,2009-06-04T09:00:00Z,29.4412,-92.0613,10.0,3.033,321.0,,'11111222,11111222,99999999' 
WAVCIS,ioos:station:WAVCIS:CSI03:3,2009-06-04T10:00:00Z,29.4412,-92.0613,10.0,5.443,0.0,,'11111222,11111222,99999999' 
WAVCIS,ioos:station:WAVCIS:CSI03:3,2009-06-04T11:00:00Z,29.4412,-92.0613,10.0,8.15,343.0,,'11111222,11111222,99999999' 
WAVCIS,ioos:station:WAVCIS:CSI03:3,2009-06-04T12:00:00Z,29.4412,-92.0613,10.0,5.873,357.0,,'11111222,11111222,99999999' 
WAVCIS,ioos:station:WAVCIS:CSI03:3,2009-06-04T13:00:00Z,29.4412,-92.0613,10.0,3.507,351.0,,'11111222,11111222,99999999' 
WAVCIS,ioos:station:WAVCIS:CSI03:3,2009-06-04T14:00:00Z,29.4412,-92.0613,10.0,2.236,303.0,,'11111222,11111222,99999999' 
WAVCIS,ioos:station:WAVCIS:CSI03:3,2009-06-04T15:00:00Z,29.4412,-92.0613,10.0,2.862,310.0,,'11111222,11111222,99999999' 
WAVCIS,ioos:station:WAVCIS:CSI03:3,2009-06-04T16:00:00Z,29.4412,-92.0613,10.0,1.832,290.0,,'11111222,11111222,99999999' 
WAVCIS,ioos:station:WAVCIS:CSI03:3,2009-06-04T17:00:00Z,29.4412,-92.0613,10.0,3.199,281.0,,'11111222,11111222,99999999' 
WAVCIS,ioos:station:WAVCIS:CSI03:3,2009-06-04T18:00:00Z,29.4412,-92.0613,10.0,3.398,263.0,,'11111222,11111222,99999999' 
WAVCIS,ioos:station:WAVCIS:CSI03:3,2009-06-04T19:00:00Z,29.4412,-92.0613,10.0,5.83,268.0,,'11111222,11111222,99999999' 
WAVCIS,ioos:station:WAVCIS:CSI03:3,2009-06-04T20:00:00Z,29.4412,-92.0613,10.0,6.4,267.0,,'11111222,11111222,99999999' 
WAVCIS,ioos:station:WAVCIS:CSI03:3,2009-06-04T21:00:00Z,29.4412,-92.0613,10.0,6.432,272.0,,'11111222,11111222,99999999' 
WAVCIS,ioos:station:WAVCIS:CSI03:3,2009-06-04T22:00:00Z,29.4412,-92.0613,10.0,8.62,285.0,,'11111222,11111222,99999999' 
WAVCIS,ioos:station:WAVCIS:CSI03:3,2009-06-04T23:00:00Z,29.4412,-92.0613,10.0,7.72,282.0,,'11111222,11111222,99999999' 
WAVCIS,ioos:station:WAVCIS:CSI03:3,2009-06-05T00:00:00Z,29.4412,-92.0613,10.0,4.505,353.0,,'11111222,11111222,99999999' 
WAVCIS,ioos:station:WAVCIS:CSI03:3,2009-06-05T01:00:00Z,29.4412,-92.0613,10.0,9.28,340.0,,'11111222,11111222,99999999' 
WAVCIS,ioos:station:WAVCIS:CSI03:3,2009-06-05T02:00:00Z,29.4412,-92.0613,10.0,10.67,337.0,,'11111222,11111222,99999999' 
WAVCIS,ioos:station:WAVCIS:CSI03:3,2009-06-05T03:00:00Z,29.4412,-92.0613,10.0,7.2,2.0,,'11111222,11111222,99999999' 
WAVCIS,ioos:station:WAVCIS:CSI03:3,2009-06-05T04:00:00Z,29.4412,-92.0613,10.0,6.492,359.0,,'11111222,11111222,99999999' 
WAVCIS,ioos:station:WAVCIS:CSI03:3,2009-06-05T05:00:00Z,29.4412,-92.0613,10.0,6.852,353.0,,'11111222,11111222,99999999' 
WAVCIS,ioos:station:WAVCIS:CSI03:3,2009-06-05T06:00:00Z,29.4412,-92.0613,10.0,6.719,5.0,,'11111222,11111222,99999999' 
WAVCIS,ioos:station:WAVCIS:CSI03:3,2009-06-05T07:00:00Z,29.4412,-92.0613,10.0,6.692,8.0,,'11111222,11111222,99999999' 
WAVCIS,ioos:station:WAVCIS:CSI03:3,2009-06-05T08:00:00Z,29.4412,-92.0613,10.0,5.448,7.0,,'11111222,11111222,99999999' 
WAVCIS,ioos:station:WAVCIS:CSI03:3,2009-06-05T09:00:00Z,29.4412,-92.0613,10.0,6.249,6.0,,'11111222,11111222,99999999' 
WAVCIS,ioos:station:WAVCIS:CSI03:3,2009-06-05T10:00:00Z,29.4412,-92.0613,10.0,5.774,10.0,,'11111222,11111222,99999999' 
WAVCIS,ioos:station:WAVCIS:CSI03:3,2009-06-05T11:00:00Z,29.4412,-92.0613,10.0,6.023,359.0,,'11111222,11111222,99999999' 
WAVCIS,ioos:station:WAVCIS:CSI03:3,2009-06-05T12:00:00Z,29.4412,-92.0613,10.0,6.136,8.0,,'11111222,11111222,99999999' 
WAVCIS,ioos:station:WAVCIS:CSI03:3,2009-06-05T13:00:00Z,29.4412,-92.0613,10.0,5.283,10.0,,'11111222,11111222,99999999' 
WAVCIS,ioos:station:WAVCIS:CSI03:3,2009-06-05T14:00:00Z,29.4412,-92.0613,10.0,4.729,24.0,,'11111222,11111222,99999999' 
WAVCIS,ioos:station:WAVCIS:CSI03:3,2009-06-05T15:00:00Z,29.4412,-92.0613,10.0,4.092,40.0,,'11111222,11111222,99999999' 
WAVCIS,ioos:station:WAVCIS:CSI03:3,2009-06-05T16:00:00Z,29.4412,-92.0613,10.0,4.162,23.0,,'11111222,11111222,99999999' 
WAVCIS,ioos:station:WAVCIS:CSI03:3,2009-06-05T17:00:00Z,29.4412,-92.0613,10.0,4.864,15.0,,'11111222,11111222,99999999' 
WAVCIS,ioos:station:WAVCIS:CSI03:3,2009-06-05T18:00:00Z,29.4412,-92.0613,10.0,3.246,29.0,,'11111222,11111222,99999999' 
WAVCIS,ioos:station:WAVCIS:CSI03:3,2009-06-05T19:00:00Z,29.4412,-92.0613,10.0,2.83,22.0,,'11111222,11111222,99999999' 
WAVCIS,ioos:station:WAVCIS:CSI03:3,2009-06-05T20:00:00Z,29.4412,-92.0613,10.0,2.007,26.0,,'11111222,11111222,99999999' 
WAVCIS,ioos:station:WAVCIS:CSI03:3,2009-06-05T21:00:00Z,29.4412,-92.0613,10.0,2.507,13.0,,'11111222,11111222,99999999' 
WAVCIS,ioos:station:WAVCIS:CSI03:3,2009-06-05T22:00:00Z,29.4412,-92.0613,10.0,2.889,16.0,,'11111222,11111222,99999999' 
WAVCIS,ioos:station:WAVCIS:CSI03:3,2009-06-05T23:00:00Z,29.4412,-92.0613,10.0,2.984,26.0,,'11111222,11111222,99999999' 
WAVCIS,ioos:station:WAVCIS:CSI03:3,2009-06-06T00:00:00Z,29.4412,-92.0613,10.0,3.023,27.0,,'11111222,11111222,99999999' 
WAVCIS,ioos:station:WAVCIS:CSI03:3,2009-06-06T01:00:00Z,29.4412,-92.0613,10.0,3.187,27.0,,'11111222,11111222,99999999' 
WAVCIS,ioos:station:WAVCIS:CSI03:3,2009-06-06T02:00:00Z,29.4412,-92.0613,10.0,4.314,18.0,,'11111222,11111222,99999999' 
WAVCIS,ioos:station:WAVCIS:CSI03:3,2009-06-06T03:00:00Z,29.4412,-92.0613,10.0,5.802,55.0,,'11111222,11111222,99999999' 
WAVCIS,ioos:station:WAVCIS:CSI03:3,2009-06-06T04:00:00Z,29.4412,-92.0613,10.0,5.58,55.0,,'11111222,11111222,99999999' 
WAVCIS,ioos:station:WAVCIS:CSI03:3,2009-06-06T05:00:00Z,29.4412,-92.0613,10.0,5.574,55.0,,'11111222,11111222,99999999' 
WAVCIS,ioos:station:WAVCIS:CSI03:3,2009-06-06T06:00:00Z,29.4412,-92.0613,10.0,5.201,56.0,,'11111222,11111222,99999999' 
WAVCIS,ioos:station:WAVCIS:CSI03:3,2009-06-06T07:00:00Z,29.4412,-92.0613,10.0,7.47,56.0,,'11111222,11111222,99999999' 
WAVCIS,ioos:station:WAVCIS:CSI03:3,2009-06-06T08:00:00Z,29.4412,-92.0613,10.0,7.4,60.0,,'11111222,11111222,99999999' 
WAVCIS,ioos:station:WAVCIS:CSI03:3,2009-06-06T09:00:00Z,29.4412,-92.0613,10.0,7.45,68.0,,'11111222,11111222,99999999' 
WAVCIS,ioos:station:WAVCIS:CSI03:3,2009-06-06T10:00:00Z,29.4412,-92.0613,10.0,6.878,74.0,,'11111222,11111222,99999999' 
WAVCIS,ioos:station:WAVCIS:CSI03:3,2009-06-06T11:00:00Z,29.4412,-92.0613,10.0,6.82,79.0,,'11111222,11111222,99999999' 
WAVCIS,ioos:station:WAVCIS:CSI03:3,2009-06-06T12:00:00Z,29.4412,-92.0613,10.0,5.905,80.0,,'11111222,11111222,99999999' 
WAVCIS,ioos:station:WAVCIS:CSI03:3,2009-06-06T13:00:00Z,29.4412,-92.0613,10.0,5.386,95.0,,'11111222,11111222,99999999' 
WAVCIS,ioos:station:WAVCIS:CSI03:3,2009-06-06T14:00:00Z,29.4412,-92.0613,10.0,4.281,119.0,,'11111222,11111222,99999999' 
WAVCIS,ioos:station:WAVCIS:CSI03:3,2009-06-06T15:00:00Z,29.4412,-92.0613,10.0,3.98,117.0,,'11111222,11111222,99999999' 
WAVCIS,ioos:station:WAVCIS:CSI03:3,2009-06-06T16:00:00Z,29.4412,-92.0613,10.0,2.972,124.0,,'11111222,11111222,99999999' 
WAVCIS,ioos:station:WAVCIS:CSI03:3,2009-06-06T17:00:00Z,29.4412,-92.0613,10.0,2.755,122.0,,'11111222,11111222,99999999' 
WAVCIS,ioos:station:WAVCIS:CSI03:3,2009-06-06T18:00:00Z,29.4412,-92.0613,10.0,2.884,147.0,,'11111222,11111222,99999999' 
WAVCIS,ioos:station:WAVCIS:CSI03:3,2009-06-06T19:00:00Z,29.4412,-92.0613,10.0,2.744,172.0,,'11111222,11111222,99999999' 
WAVCIS,ioos:station:WAVCIS:CSI03:3,2009-06-06T20:00:00Z,29.4412,-92.0613,10.0,2.523,182.0,,'11111222,11111222,99999999' 
WAVCIS,ioos:station:WAVCIS:CSI03:3,2009-06-06T21:00:00Z,29.4412,-92.0613,10.0,2.725,186.0,,'11111222,11111222,99999999' 
WAVCIS,ioos:station:WAVCIS:CSI03:3,2009-06-06T22:00:00Z,29.4412,-92.0613,10.0,3.792,182.0,,'11111222,11111222,99999999' 
WAVCIS,ioos:station:WAVCIS:CSI03:3,2009-06-06T23:00:00Z,29.4412,-92.0613,10.0,3.032,194.0,,'11111222,11111222,99999999' 
WAVCIS,ioos:station:WAVCIS:CSI03:3,2009-06-07T00:00:00Z,29.4412,-92.0613,10.0,3.225,195.0,,'11111222,11111222,99999999' 
WAVCIS,ioos:station:WAVCIS:CSI03:3,2009-06-07T01:00:00Z,29.4412,-92.0613,10.0,2.518,193.0,,'11111222,11111222,99999999' 
WAVCIS,ioos:station:WAVCIS:CSI03:3,2009-06-07T02:00:00Z,29.4412,-92.0613,10.0,2.912,190.0,,'11111222,11111222,99999999' 
WAVCIS,ioos:station:WAVCIS:CSI03:3,2009-06-07T03:00:00Z,29.4412,-92.0613,10.0,1.632,188.0,,'11111222,11111222,99999999' 
WAVCIS,ioos:station:WAVCIS:CSI03:3,2009-06-07T04:00:00Z,29.4412,-92.0613,10.0,2.352,185.0,,'11111222,11111222,99999999' 
WAVCIS,ioos:station:WAVCIS:CSI03:3,2009-06-07T05:00:00Z,29.4412,-92.0613,10.0,2.579,184.0,,'11111222,11111222,99999999' 
WAVCIS,ioos:station:WAVCIS:CSI03:3,2009-06-07T06:00:00Z,29.4412,-92.0613,10.0,3.334,180.0,,'11111222,11111222,99999999' 
WAVCIS,ioos:station:WAVCIS:CSI03:3,2009-06-07T07:00:00Z,29.4412,-92.0613,10.0,4.786,162.0,,'11111222,11111222,99999999' 
WAVCIS,ioos:station:WAVCIS:CSI03:3,2009-06-07T08:00:00Z,29.4412,-92.0613,10.0,4.272,173.0,,'11111222,11111222,99999999' 
WAVCIS,ioos:station:WAVCIS:CSI03:3,2009-06-07T09:00:00Z,29.4412,-92.0613,10.0,4.714,178.0,,'11111222,11111222,99999999' 
WAVCIS,ioos:station:WAVCIS:CSI03:3,2009-06-07T10:00:00Z,29.4412,-92.0613,10.0,3.48,183.0,,'11111222,11111222,99999999' 
WAVCIS,ioos:station:WAVCIS:CSI03:3,2009-06-07T11:00:00Z,29.4412,-92.0613,10.0,4.77,168.0,,'11111222,11111222,99999999' 
WAVCIS,ioos:station:WAVCIS:CSI03:3,2009-06-07T12:00:00Z,29.4412,-92.0613,10.0,5.568,165.0,,'11111222,11111222,99999999' 
WAVCIS,ioos:station:WAVCIS:CSI03:3,2009-06-07T13:00:00Z,29.4412,-92.0613,10.0,4.911,174.0,,'11111222,11111222,99999999' 
WAVCIS,ioos:station:WAVCIS:CSI03:3,2009-06-07T14:00:00Z,29.4412,-92.0613,10.0,4.351,183.0,,'11111222,11111222,99999999' 
WAVCIS,ioos:station:WAVCIS:CSI03:3,2009-06-07T15:00:00Z,29.4412,-92.0613,10.0,2.508,187.0,,'11111222,11111222,99999999' 
WAVCIS,ioos:station:WAVCIS:CSI03:3,2009-06-07T16:00:00Z,29.4412,-92.0613,10.0,4.27,177.0,,'11111222,11111222,99999999' 
WAVCIS,ioos:station:WAVCIS:CSI03:3,2009-06-07T17:00:00Z,29.4412,-92.0613,10.0,4.222,176.0,,'11111222,11111222,99999999' 
WAVCIS,ioos:station:WAVCIS:CSI03:3,2009-06-07T18:00:00Z,29.4412,-92.0613,10.0,2.78,185.0,,'11111222,11111222,99999999' 
WAVCIS,ioos:station:WAVCIS:CSI03:3,2009-06-07T19:00:00Z,29.4412,-92.0613,10.0,3.628,180.0,,'11111222,11111222,99999999' 
WAVCIS,ioos:station:WAVCIS:CSI03:3,2009-06-07T20:00:00Z,29.4412,-92.0613,10.0,3.818,180.0,,'11111222,11111222,99999999' 
WAVCIS,ioos:station:WAVCIS:CSI03:3,2009-06-07T21:00:00Z,29.4412,-92.0613,10.0,3.63,181.0,,'11111222,11111222,99999999' 
WAVCIS,ioos:station:WAVCIS:CSI03:3,2009-06-07T22:00:00Z,29.4412,-92.0613,10.0,3.284,184.0,,'11111222,11111222,99999999' 
WAVCIS,ioos:station:WAVCIS:CSI03:3,2009-06-07T23:00:00Z,29.4412,-92.0613,10.0,3.583,177.0,,'11111222,11111222,99999999' 
WAVCIS,ioos:station:WAVCIS:CSI03:3,2009-06-08T00:00:00Z,29.4412,-92.0613,10.0,3.65,181.0,,'11111222,11111222,99999999' 
WAVCIS,ioos:station:WAVCIS:CSI03:3,2009-06-08T01:00:00Z,29.4412,-92.0613,10.0,4.004,179.0,,'11111222,11111222,99999999' 
WAVCIS,ioos:station:WAVCIS:CSI03:3,2009-06-08T02:00:00Z,29.4412,-92.0613,10.0,4.086,175.0,,'11111222,11111222,99999999' 
WAVCIS,ioos:station:WAVCIS:CSI03:3,2009-06-08T03:00:00Z,29.4412,-92.0613,10.0,4.939,164.0,,'11111222,11111222,99999999' 
WAVCIS,ioos:station:WAVCIS:CSI03:3,2009-06-08T04:00:00Z,29.4412,-92.0613,10.0,5.7,157.0,,'11111222,11111222,99999999' 
WAVCIS,ioos:station:WAVCIS:CSI03:3,2009-06-08T05:00:00Z,29.4412,-92.0613,10.0,5.943,162.0,,'11111222,11111222,99999999' 
WAVCIS,ioos:station:WAVCIS:CSI03:3,2009-06-08T06:00:00Z,29.4412,-92.0613,10.0,6.72,166.0,,'11111222,11111222,99999999' 
WAVCIS,ioos:station:WAVCIS:CSI03:3,2009-06-08T07:00:00Z,29.4412,-92.0613,10.0,8.04,168.0,,'11111222,11111222,99999999' 
WAVCIS,ioos:station:WAVCIS:CSI03:3,2009-06-08T08:00:00Z,29.4412,-92.0613,10.0,7.26,168.0,,'11111222,11111222,99999999' 
WAVCIS,ioos:station:WAVCIS:CSI03:3,2009-06-08T09:00:00Z,29.4412,-92.0613,10.0,7.8,174.0,,'11111222,11111222,99999999' 
WAVCIS,ioos:station:WAVCIS:CSI03:3,2009-06-08T10:00:00Z,29.4412,-92.0613,10.0,6.753,172.0,,'11111222,11111222,99999999' 
WAVCIS,ioos:station:WAVCIS:CSI03:3,2009-06-08T11:00:00Z,29.4412,-92.0613,10.0,5.266,183.0,,'11111222,11111222,99999999' 
WAVCIS,ioos:station:WAVCIS:CSI03:3,2009-06-08T12:00:00Z,29.4412,-92.0613,10.0,5.52,181.0,,'11111222,11111222,99999999' 
WAVCIS,ioos:station:WAVCIS:CSI03:3,2009-06-08T13:00:00Z,29.4412,-92.0613,10.0,4.57,185.0,,'11111222,11111222,99999999' 
WAVCIS,ioos:station:WAVCIS:CSI03:3,2009-06-08T14:00:00Z,29.4412,-92.0613,10.0,5.593,180.0,,'11111222,11111222,99999999' 
WAVCIS,ioos:station:WAVCIS:CSI03:3,2009-06-08T15:00:00Z,29.4412,-92.0613,10.0,5.539,176.0,,'11111222,11111222,99999999' 
WAVCIS,ioos:station:WAVCIS:CSI03:3,2009-06-08T16:00:00Z,29.4412,-92.0613,10.0,5.135,179.0,,'11111222,11111222,99999999' 
WAVCIS,ioos:station:WAVCIS:CSI03:3,2009-06-08T17:00:00Z,29.4412,-92.0613,10.0,4.999,177.0,,'11111222,11111222,99999999' 
WAVCIS,ioos:station:WAVCIS:CSI03:3,2009-06-08T18:00:00Z,29.4412,-92.0613,10.0,5.092,176.0,,'11111222,11111222,99999999' 
WAVCIS,ioos:station:WAVCIS:CSI03:3,2009-06-08T19:00:00Z,29.4412,-92.0613,10.0,4.633,178.0,,'11111222,11111222,99999999' 
WAVCIS,ioos:station:WAVCIS:CSI03:3,2009-06-08T20:00:00Z,29.4412,-92.0613,10.0,4.067,174.0,,'11111222,11111222,99999999' 
WAVCIS,ioos:station:WAVCIS:CSI03:3,2009-06-08T21:00:00Z,29.4412,-92.0613,10.0,3.845,167.0,,'11111222,11111222,99999999' 
WAVCIS,ioos:station:WAVCIS:CSI03:3,2009-06-08T22:00:00Z,29.4412,-92.0613,10.0,4.513,169.0,,'11111222,11111222,99999999' 
WAVCIS,ioos:station:WAVCIS:CSI03:3,2009-06-08T23:00:00Z,29.4412,-92.0613,10.0,4.836,164.0,,'11111222,11111222,99999999' 
WAVCIS,ioos:station:WAVCIS:CSI03:3,2009-06-09T00:00:00Z,29.4412,-92.0613,10.0,4.649,176.0,,'11111222,11111222,99999999' 
WAVCIS,ioos:station:WAVCIS:CSI03:3,2009-06-09T01:00:00Z,29.4412,-92.0613,10.0,5.076,174.0,,'11111222,11111222,99999999' 
WAVCIS,ioos:station:WAVCIS:CSI03:3,2009-06-09T02:00:00Z,29.4412,-92.0613,10.0,5.651,176.0,,'11111222,11111222,99999999' 
WAVCIS,ioos:station:WAVCIS:CSI03:3,2009-06-09T03:00:00Z,29.4412,-92.0613,10.0,5.81,177.0,,'11111222,11111222,99999999' 
WAVCIS,ioos:station:WAVCIS:CSI03:3,2009-06-09T04:00:00Z,29.4412,-92.0613,10.0,7.16,176.0,,'11111222,11111222,99999999' 
WAVCIS,ioos:station:WAVCIS:CSI03:3,2009-06-09T05:00:00Z,29.4412,-92.0613,10.0,4.202,184.0,,'11111222,11111222,99999999' 